Location: Carrer del Canonge
(41.4901°N, 2.2931°E)
Time: 13:57:27
(UTC+00:00)

Cosmos 1125 Rocket - Pass Details

Date: 18 September 2020
Orbit: 758 x 779 km, 74.0° (Epoch: 28 October)

Event Time Altitude Azimuth Distance (km) Brightness Sun altitude
Rises 20:36:34 0° 215° (SW) 3,242 6.8 -29.6°
Reaches altitude 10° 20:39:02 10° 221° (SW) 2,321 6.1 -30.0°
Maximum altitude 20:44:05 46° 294° (WNW) 1,045 4.5 -30.8°
Drops below altitude 10° 20:49:12 10° 8° (N) 2,341 6.3 -31.6°
Sets 20:51:42 0° 15° (NNE) 3,272 7.0 -31.9°
